Tracking 19193 objects as of 23-Jun-2018
HD Live streaming from Space Station
objects crossing your sky now

FENGYUN 1C DEB

Track FENGYUN 1C DEB now!
10-day predictions


NORAD ID: 36710
Int'l Code: 1999-025EAG
Perigee: 731.1 km
Apogee: 858.1 km
Inclination: 98.6 °
Period: 100.6 minutes
Semi major axis: 7165 km
RCS: 0.0087 m2 (small)
Launch date: May 10, 1999
Source: People's Republic of China (PRC)
Launch site: Taiyaun Space Center, China (TSC)

Note: This is SATELLITE DEBRIS
aabbcc
Your satellite tracking list
Your tracking list is empty




NASA's NSSDC Master Catalog

Two Line Element Set (TLE):
1 36710U 99025EAG 18172.92911665 +.00000351 +00000-0 +14302-3 0  9992
2 36710 098.6366 227.7712 0088567 025.7431 334.8121 14.31279635257637
Source of the keplerian elements: AFSPC